User: anonymous   Login
Location: Chacón
(10.5789°N, 66.9317°W)
Time: 09:19:18
(UTC+00:00)
Language:

Palapa 6 Rocket - Orbit

View from above orbital plane
View from above orbital plane
View from above satellite
View from above satellite

Ground track
Ground track

The orbit data is extracted from the following two-line orbital elements,

1 20571U 90034B   24196.70485639  .00006284  00000-0  86672-3 0  9997
2 20571  22.7464 196.8475 0486801 326.2040  30.8280 14.17464377758528
Epoch (UTC): 14 July 2024 16:54:59
Eccentricity: 0.0486801
inclination: 22.7464°
perigee height: 483 km
apogee height: 1185 km
right ascension of ascending node: 196.8475°
argument of perigee: 326.2040°
revolutions per day: 14.17464377
mean anomaly at epoch: 30.8280°
orbit number at epoch: 75852

The dashed part of the orbit path shows where the satellite is in the earth's shadow,  

DLR